Location: La Sioule Rivi�re
(46.3664°N, 3.3197°E)
Time: 13:02:47
(UTC+00:00)

H-2A R/B - Pass Details

Date: 29 October 2020
Orbit: 577 x 656 km, 98.5° (Epoch: 23 November)

Event Time Altitude Azimuth Distance (km) Brightness Sun altitude
Rises 17:00:06 0° 12° (NNE) 2,840 5.2 -4.8°
Reaches altitude 10° 17:02:18 10° 11° (N) 1,924 4.3 -5.2°
Maximum altitude 17:06:27 75° 286° (WNW) 607 2.2 -5.9°
Drops below altitude 10° 17:10:31 10° 201° (SSW) 1,886 5.1 -6.6°
Sets 17:12:38 0° 200° (SSW) 2,778 5.9 -6.9°
